This demonstration page uses our WeatherBlox Daily Observations layout. Learn more.

40.92945, -100.16068

Hourly Observations for December 8, 2018

Temp ( °F °C ) Dew Point ( °F °C ) Humidity (%) Winds ( mph kmh ) Pressure ( in mb ) Visibility ( mi km ) Precip ( " mm )
12:10 am 00:10 Clear 11 -11.5 8 -13.3 87 87 Calm 30.62 1037 7 11.26538 0 0
12:35 am 00:35 Clear 11 -11.7 8 -13.5 87 87 Calm 30.62 1037 10 16.0934 0 0
12:55 am 00:55 Clear 10 -12.2 7 -14 87 87 Calm 30.62 1037 10 16.0934 0 0
1:15 am 01:15 Clear 10 -12.3 7 -14.1 87 87 Calm 30.62 1037 7 11.26538 0 0
1:35 am 01:35 Clear 10 -12.5 6 -14.3 87 87 N 3 6 30.62 1037 10 16.0934 0 0
1:55 am 01:55 Clear 10 -12.5 6 -14.4 86 86 Calm 30.62 1037 10 16.0934 0 0
2:15 am 02:15 Clear 9 -12.8 6 -14.7 86 86 Calm 30.62 1037 10 16.0934 0 0
2:35 am 02:35 Clear 9 -12.8 6 -14.7 86 86 Calm 30.62 1037 10 16.0934 0 0
2:55 am 02:55 Clear 10 -12.4 6 -14.3 86 86 Calm 30.62 1037 10 16.0934 0 0
3:15 am 03:15 Clear 8 -13.4 4 -15.3 86 86 Calm 30.65 1038 10 16.0934 0 0
3:35 am 03:35 Mostly Cloudy 8 -13.5 4 -15.5 85 85 Calm 30.65 1038 10 16.0934 0 0
3:55 am 03:55 Cloudy 10 -12.4 6 -14.2 87 87 W 3 6 30.62 1037 10 16.0934 0 0
4:15 am 04:15 Cloudy 12 -11.2 9 -13 87 87 Calm 30.59 1036 10 16.0934 0 0
4:35 am 04:35 Cloudy 13 -10.5 10 -12.2 87 87 Calm 30.59 1036 7 11.26538 0 0
4:55 am 04:55 Cloudy with Mist and Fog 14 -10 11 -11.6 88 88 Calm 30.56 1035 1 1.60934 0 0
5:15 am 05:15 Cloudy with Freezing Fog 14 -9.8 11 -11.4 88 88 Calm 30.56 1035 0.25 0.402335 0 0
5:35 am 05:35 Cloudy with Freezing Fog 14 -10 11 -11.5 89 89 Calm 30.56 1035 0.25 0.402335 0 0
5:55 am 05:55 Cloudy with Freezing Fog N/A N/A N/A Calm N/A 0.25 0.402335 0 0
6:15 am 06:15 Cloudy with Fog N/A N/A N/A Calm N/A 0.25 0.402335 0 0
6:35 am 06:35 Cloudy with Fog N/A N/A N/A Calm N/A 0.25 0.402335 0 0
6:55 am 06:55 Cloudy with Fog N/A N/A N/A Calm N/A 0.25 0.402335 0 0
7:15 am 07:15 Cloudy with Fog N/A N/A N/A Calm N/A 0.25 0.402335 0 0
7:35 am 07:35 Cloudy with Fog N/A N/A N/A Calm N/A 0.25 0.402335 0 0
7:55 am 07:55 Cloudy with Fog N/A N/A N/A Calm N/A 5 8.0467 0 0
8:15 am 08:15 Cloudy with Fog N/A N/A N/A Calm N/A 5 8.0467 0 0
8:35 am 08:35 Cloudy with Fog N/A N/A N/A Calm N/A 5 8.0467 0 0
8:55 am 08:55 Cloudy with Fog N/A N/A N/A Calm N/A 5 8.0467 0 0
9:15 am 09:15 Cloudy with Fog N/A N/A N/A Calm N/A 5 8.0467 0 0
9:35 am 09:35 Cloudy with Mist and Fog N/A N/A N/A Calm N/A 0.75 1.207005 0 0
9:55 am 09:55 Cloudy with Mist and Fog N/A N/A N/A S 5 7 N/A 1 1.60934 0 0
10:15 am 10:15 Cloudy with Mist and Fog N/A N/A N/A SSW 5 7 N/A 2.5 4.02335 0 0
10:35 am 10:35 Partly Cloudy N/A N/A N/A SSW 6 9 N/A 7 11.26538 0 0
10:55 am 10:55 Sunny 22 -5.3 21 -6.3 93 93 S 8 13 30.53 1034 10 16.0934 0 0
11:15 am 11:15 Sunny 22 -5.5 20 -6.6 92 92 S 9 15 30.53 1034 10 16.0934 0 0
11:35 am 11:35 Sunny 23 -4.9 20 -6.4 89 89 S 10 17 30.5 1033 10 16.0934 0 0
11:55 am 11:55 Sunny 24 -4.7 20 -6.8 85 85 S 10 17 30.48 1032 10 16.0934 0 0
12:15 pm 12:15 Sunny 25 -3.8 20 -6.4 82 82 S 12 19 30.48 1032 10 16.0934 0 0
12:35 pm 12:35 Sunny 26 -3.3 20 -6.6 78 78 S 10 17 30.48 1032 10 16.0934 0 0
12:55 pm 12:55 Sunny 26 -3.2 20 -6.9 76 76 S 12 19 30.45 1031 10 16.0934 0 0
1:15 pm 13:15 Sunny 27 -3 19 -7 74 74 S 14 22 30.42 1030 10 16.0934 0 0
1:35 pm 13:35 Sunny 28 -2.5 20 -6.5 74 74 S 13 20 30.39 1029 10 16.0934 0 0
1:55 pm 13:55 Sunny 29 -1.8 21 -6.2 72 72 S 10 17 30.39 1029 10 16.0934 0 0
2:15 pm 14:15 Sunny 30 -1.3 21 -5.9 71 71 S 12 19 30.39 1029 10 16.0934 0 0
2:35 pm 14:35 Sunny 30 -1 22 -5.3 73 73 S 12 19 30.39 1029 10 16.0934 0 0
2:55 pm 14:55 Sunny 31 -0.5 23 -5 72 72 S 12 19 30.36 1028 10 16.0934 0 0
3:15 pm 15:15 Sunny 32 0 24 -4.6 71 71 S 8 13 30.36 1028 10 16.0934 0 0
3:35 pm 15:35 Sunny 32 0.2 24 -4.4 72 72 S 10 17 30.36 1028 10 16.0934 0 0
3:55 pm 15:55 Sunny 32 0.2 24 -4.3 72 72 S 13 20 30.36 1028 10 16.0934 0 0
4:15 pm 16:15 Sunny 32 0 24 -4.5 72 72 S 9 15 30.36 1028 10 16.0934 0 0
4:35 pm 16:35 Sunny 31 -0.3 24 -4.6 73 73 S 9 15 30.39 1029 10 16.0934 0 0
4:55 pm 16:55 Sunny 30 -1.1 23 -5 75 75 S 7 11 30.39 1029 10 16.0934 0 0
5:15 pm 17:15 Clear 29 -1.7 23 -5.2 77 77 S 6 9 30.39 1029 10 16.0934 0 0
5:35 pm 17:35 Clear 28 -2.2 22 -5.5 78 78 S 8 13 30.39 1029 10 16.0934 0 0
5:55 pm 17:55 Clear 27 -2.6 22 -5.4 81 81 S 8 13 30.39 1029 10 16.0934 0 0
6:15 pm 18:15 Clear 28 -2.4 23 -5.1 82 82 S 7 11 30.39 1029 10 16.0934 0 0
6:35 pm 18:35 Clear 27 -2.7 22 -5.6 81 81 S 7 11 30.39 1029 10 16.0934 0 0
6:55 pm 18:55 Clear 28 -2.1 22 -5.3 79 79 S 3 6 30.39 1029 10 16.0934 0 0
7:15 pm 19:15 Clear 29 -1.7 23 -4.9 79 79 SSW 3 6 30.39 1029 10 16.0934 0 0
7:35 pm 19:35 Clear 28 -2.5 23 -5.2 82 82 WSW 3 6 30.42 1030 10 16.0934 0 0
7:55 pm 19:55 Clear 29 -1.9 23 -5.1 79 79 SW 3 6 30.39 1029 10 16.0934 0 0
8:15 pm 20:15 Clear 25 -3.8 21 -6 85 85 Calm 30.45 1031 10 16.0934 0 0
8:35 pm 20:35 Clear 30 -1.2 24 -4.7 77 77 W 5 7 30.42 1030 10 16.0934 0 0
8:55 pm 20:55 Clear 21 -6.1 17 -8.4 84 84 NW 6 9 30.48 1032 10 16.0934 0 0
9:15 pm 21:15 Clear 20 -6.9 17 -8.6 88 88 NW 5 7 30.48 1032 10 16.0934 0 0
9:35 pm 21:35 Clear 20 -6.9 17 -8.6 88 88 NW 6 9 30.48 1032 10 16.0934 0 0
9:55 pm 21:55 Clear 18 -7.7 15 -9.4 88 88 NW 6 9 30.48 1032 10 16.0934 0 0
10:15 pm 22:15 Clear 19 -7.4 16 -8.8 90 90 NW 5 7 30.48 1032 10 16.0934 0 0
10:35 pm 22:35 Clear 19 -7 16 -8.7 88 88 WNW 3 6 30.48 1032 10 16.0934 0 0
10:55 pm 22:55 Clear 18 -7.9 15 -9.4 89 89 Calm 30.48 1032 10 16.0934 0 0
11:15 pm 23:15 Clear 19 -7.3 17 -8.6 91 91 Calm 30.48 1032 7 11.26538 0 0
11:35 pm 23:35 Clear 15 -9.5 12 -11.3 87 87 Calm 30.5 1033 10 16.0934 0 0
11:55 pm 23:55 Clear with Mist and Fog 15 -9.3 13 -10.6 90 90 NNW 6 9 30.5 1033 5 8.0467 0 0

Powered by AerisWeather